RJA815 ORBI-OJAI

Flight info

Callsign RJA815
Flight time 1h 24m
Altitude 38000
Route BGD DCT DELMI G202 RAPLU R652 GIBUX L200 DAXEN/N0455F390 A412 LUDAN
Aircraft A20N/M-SDE2E3FGHIRWXY/LB1

Departure

Time 2026-04-29 14:18
Airport Baghdad International Airport / New Al Muthana Air Base (ORBI)

Arrival

Time 2026-04-29 15:42
Airport Queen Alia International Airport (OJAI)
Time Latitude Longitude Altitude Speed Heading
2026-04-29 14:18 33.31648 44.12381 5151 ft 261 kts 271°
2026-04-29 14:18 33.31668 44.10200 6108 ft 265 kts 270°
2026-04-29 14:19 33.31690 44.07977 7036 ft 268 kts 270°
2026-04-29 14:19 33.31711 44.05724 7986 ft 271 kts 270°
2026-04-29 14:19 33.31730 44.03480 8904 ft 274 kts 270°
2026-04-29 14:19 33.31750 44.01187 9841 ft 277 kts 270°
2026-04-29 14:20 33.31770 43.98846 10507 ft 289 kts 270°
2026-04-29 14:20 33.31792 43.96328 10838 ft 312 kts 270°
2026-04-29 14:20 33.31813 43.93674 11254 ft 328 kts 270°
2026-04-29 14:20 33.31835 43.90905 12051 ft 332 kts 270°
2026-04-29 14:21 33.31856 43.88130 12898 ft 335 kts 270°
2026-04-29 14:21 33.31877 43.85367 13696 ft 339 kts 270°
2026-04-29 14:21 33.31897 43.82535 14457 ft 341 kts 270°
2026-04-29 14:21 33.31917 43.79699 15234 ft 342 kts 270°
2026-04-29 14:22 33.31937 43.76812 16002 ft 345 kts 270°
2026-04-29 14:22 33.31955 43.74038 16718 ft 347 kts 270°
2026-04-29 14:22 33.31974 43.71137 17458 ft 349 kts 269°
2026-04-29 14:22 33.31992 43.68209 18182 ft 352 kts 269°
2026-04-29 14:23 33.32008 43.65304 18797 ft 355 kts 269°
2026-04-29 14:23 33.32024 43.62332 19419 ft 357 kts 269°
2026-04-29 14:23 33.32040 43.59347 20029 ft 360 kts 269°
2026-04-29 14:23 33.32055 43.56361 20626 ft 363 kts 269°
2026-04-29 14:24 33.32069 43.53327 21224 ft 366 kts 269°
2026-04-29 14:24 33.32083 43.50268 21818 ft 369 kts 269°
2026-04-29 14:24 33.32096 43.47210 22387 ft 372 kts 269°
2026-04-29 14:24 33.32108 43.44105 22968 ft 375 kts 269°
2026-04-29 14:25 33.32120 43.40965 23527 ft 378 kts 269°
2026-04-29 14:25 33.32131 43.37813 23981 ft 381 kts 269°
2026-04-29 14:25 33.32140 43.34640 24439 ft 384 kts 269°
2026-04-29 14:25 33.32149 43.31456 24886 ft 387 kts 269°
2026-04-29 14:26 33.32158 43.28160 25319 ft 391 kts 269°
2026-04-29 14:26 33.32166 43.24939 25740 ft 394 kts 269°
2026-04-29 14:26 33.32206 43.21634 26153 ft 398 kts 272°
2026-04-29 14:26 33.32411 43.18359 26569 ft 401 kts 273°
2026-04-29 14:27 33.32624 43.14983 26976 ft 404 kts 273°
2026-04-29 14:27 33.32831 43.11647 27368 ft 407 kts 273°
2026-04-29 14:27 33.33037 43.08282 27748 ft 409 kts 273°
2026-04-29 14:28 33.33380 43.02581 28349 ft 414 kts 273°
2026-04-29 14:28 33.33585 42.99140 28698 ft 417 kts 273°
2026-04-29 14:28 33.33793 42.95637 29047 ft 420 kts 273°
2026-04-29 14:28 33.33998 42.92176 29375 ft 423 kts 273°
2026-04-29 14:29 33.34205 42.88646 29697 ft 426 kts 273°
2026-04-29 14:29 33.34411 42.85142 30011 ft 428 kts 273°
2026-04-29 14:29 33.34621 42.81545 30325 ft 430 kts 273°
2026-04-29 14:29 33.34828 42.77984 30680 ft 430 kts 273°
2026-04-29 14:30 33.35036 42.74397 31019 ft 431 kts 273°
2026-04-29 14:30 33.35201 42.70817 31423 ft 430 kts 271°
2026-04-29 14:30 33.35323 42.67281 31879 ft 427 kts 271°
2026-04-29 14:30 33.35440 42.63716 32350 ft 425 kts 271°
2026-04-29 14:31 33.35558 42.60186 32808 ft 422 kts 271°
2026-04-29 14:31 33.35676 42.56782 33235 ft 420 kts 271°
2026-04-29 14:31 33.35801 42.53267 33677 ft 417 kts 271°
2026-04-29 14:31 33.35925 42.49800 34049 ft 415 kts 270°
2026-04-29 14:32 33.36049 42.46344 34355 ft 414 kts 270°
2026-04-29 14:32 33.36171 42.42898 34633 ft 413 kts 270°
2026-04-29 14:32 33.36291 42.39463 34917 ft 412 kts 270°
2026-04-29 14:32 33.36410 42.36034 35185 ft 411 kts 270°
2026-04-29 14:33 33.36526 42.32658 35436 ft 411 kts 270°
2026-04-29 14:33 33.36644 42.29223 35703 ft 410 kts 270°
2026-04-29 14:33 33.36760 42.25818 35969 ft 409 kts 270°
2026-04-29 14:33 33.36874 42.22423 36206 ft 408 kts 269°
2026-04-29 14:34 33.36985 42.19073 36430 ft 407 kts 269°
2026-04-29 14:34 33.37095 42.15742 36665 ft 406 kts 269°
2026-04-29 14:34 33.37205 42.12377 36890 ft 406 kts 269°
2026-04-29 14:34 33.37313 42.09043 37109 ft 405 kts 269°
2026-04-29 14:35 33.37421 42.05677 37319 ft 404 kts 269°
2026-04-29 14:35 33.37528 42.02299 37518 ft 404 kts 269°
2026-04-29 14:35 33.37633 41.98991 37721 ft 403 kts 269°
2026-04-29 14:35 33.37738 41.95641 37890 ft 403 kts 269°
2026-04-29 14:36 33.37842 41.92278 37919 ft 403 kts 269°
2026-04-29 14:36 33.38046 41.85625 37917 ft 402 kts 269°
2026-04-29 14:37 33.37862 41.79012 37910 ft 399 kts 259°
2026-04-29 14:37 33.36365 41.72664 37917 ft 398 kts 247°
2026-04-29 14:38 33.33685 41.66889 37921 ft 399 kts 239°
2026-04-29 14:38 33.30764 41.61265 37916 ft 399 kts 239°
2026-04-29 14:39 33.27828 41.55603 37932 ft 399 kts 239°
2026-04-29 14:39 33.24886 41.49953 37921 ft 400 kts 239°
2026-04-29 14:40 33.21949 41.44324 37941 ft 400 kts 239°
2026-04-29 14:40 33.19000 41.38682 37942 ft 401 kts 239°
2026-04-29 14:41 33.16046 41.33037 37941 ft 401 kts 239°
2026-04-29 14:41 33.13098 41.27413 37933 ft 401 kts 239°
2026-04-29 14:42 33.10340 41.21626 37937 ft 400 kts 247°
2026-04-29 14:42 33.08765 41.15317 37933 ft 400 kts 259°
2026-04-29 14:43 33.08478 41.08643 37938 ft 402 kts 269°
2026-04-29 14:43 33.08599 41.01982 37943 ft 402 kts 268°
2026-04-29 14:44 33.08693 40.95346 37945 ft 402 kts 268°
2026-04-29 14:44 33.08788 40.88651 37928 ft 403 kts 269°
2026-04-29 14:45 33.08880 40.81987 37921 ft 403 kts 269°
2026-04-29 14:45 33.08969 40.75272 37946 ft 403 kts 269°
2026-04-29 14:46 33.09055 40.68591 37961 ft 403 kts 269°
2026-04-29 14:46 33.09137 40.61889 37945 ft 404 kts 269°
2026-04-29 14:47 33.09216 40.55205 37927 ft 404 kts 269°
2026-04-29 14:47 33.09290 40.48504 37943 ft 404 kts 269°
2026-04-29 14:48 33.09362 40.41835 37941 ft 404 kts 269°
2026-04-29 14:48 33.09430 40.35112 37945 ft 404 kts 269°
2026-04-29 14:49 33.09494 40.28429 37948 ft 404 kts 269°
2026-04-29 14:49 33.09555 40.21732 37947 ft 404 kts 269°
2026-04-29 14:50 33.09612 40.15004 37949 ft 404 kts 269°
2026-04-29 14:50 33.09666 40.08336 37943 ft 404 kts 269°
2026-04-29 14:51 33.09716 40.01596 37945 ft 404 kts 269°
2026-04-29 14:51 33.09762 39.94926 37953 ft 404 kts 269°
2026-04-29 14:52 33.09805 39.88209 37953 ft 404 kts 269°
2026-04-29 14:52 33.09841 39.81516 37949 ft 404 kts 269°
2026-04-29 14:53 33.09875 39.74798 37944 ft 404 kts 269°
2026-04-29 14:53 33.09905 39.68094 37956 ft 404 kts 269°
2026-04-29 14:54 33.09932 39.61402 37950 ft 404 kts 269°
2026-04-29 14:54 33.09955 39.54688 37949 ft 404 kts 269°
2026-04-29 14:55 33.09974 39.47989 37950 ft 404 kts 269°
2026-04-29 14:55 33.09990 39.41287 37948 ft 404 kts 269°
2026-04-29 14:56 33.10003 39.34571 37951 ft 405 kts 269°
2026-04-29 14:56 33.10011 39.27846 37949 ft 405 kts 269°
2026-04-29 14:57 33.10016 39.21158 37952 ft 405 kts 269°
2026-04-29 14:57 33.10018 39.14425 37952 ft 405 kts 269°
2026-04-29 14:58 33.10016 39.07720 37949 ft 405 kts 269°
2026-04-29 14:58 33.10010 39.00963 37951 ft 406 kts 269°
2026-04-29 14:59 33.09614 38.94291 37949 ft 406 kts 262°
2026-04-29 14:59 33.08409 38.87708 37950 ft 407 kts 255°
2026-04-29 15:00 33.06624 38.81273 37951 ft 407 kts 253°
2026-04-29 15:00 33.04846 38.74878 37948 ft 407 kts 253°
2026-04-29 15:01 33.03055 38.68463 37955 ft 408 kts 253°
2026-04-29 15:01 33.01266 38.62080 37958 ft 408 kts 253°
2026-04-29 15:02 32.99463 38.55662 37952 ft 408 kts 253°
2026-04-29 15:02 32.97664 38.49272 37962 ft 408 kts 253°
2026-04-29 15:03 32.95860 38.42879 37959 ft 408 kts 253°
2026-04-29 15:03 32.94048 38.36472 37955 ft 409 kts 253°
2026-04-29 15:04 32.92232 38.30063 37952 ft 409 kts 253°
2026-04-29 15:04 32.90419 38.23681 37955 ft 409 kts 253°
2026-04-29 15:05 32.88591 38.17262 37968 ft 409 kts 253°
2026-04-29 15:05 32.86756 38.10828 37941 ft 409 kts 253°
2026-04-29 15:06 32.84932 38.04445 37950 ft 409 kts 253°
2026-04-29 15:06 32.83128 37.98068 37956 ft 408 kts 253°
2026-04-29 15:07 32.81319 37.91664 37953 ft 408 kts 253°
2026-04-29 15:07 32.79512 37.85299 37967 ft 407 kts 253°
2026-04-29 15:08 32.77644 37.78909 37965 ft 408 kts 253°
2026-04-29 15:08 32.75710 37.72604 37958 ft 408 kts 249°
2026-04-29 15:09 32.73103 37.66598 37939 ft 411 kts 242°
2026-04-29 15:09 32.69750 37.61011 37653 ft 415 kts 236°
2026-04-29 15:09 32.68001 37.58325 37282 ft 415 kts 237°
2026-04-29 15:10 32.66229 37.55589 36519 ft 420 kts 236°
2026-04-29 15:10 32.64461 37.52858 35863 ft 420 kts 236°
2026-04-29 15:10 32.62667 37.50089 35139 ft 422 kts 236°
2026-04-29 15:10 32.60876 37.47327 34380 ft 424 kts 236°
2026-04-29 15:11 32.59073 37.44552 33580 ft 426 kts 236°
2026-04-29 15:11 32.57270 37.41776 32862 ft 425 kts 236°
2026-04-29 15:11 32.55494 37.39046 32056 ft 427 kts 236°
2026-04-29 15:11 32.53700 37.36286 31251 ft 429 kts 235°
2026-04-29 15:12 32.51883 37.33496 30682 ft 426 kts 235°
2026-04-29 15:12 32.50684 37.31657 30254 ft 425 kts 235°
2026-04-29 15:12 32.48879 37.28889 29511 ft 424 kts 235°
2026-04-29 15:12 32.46494 37.25236 28798 ft 422 kts 235°
2026-04-29 15:13 32.44684 37.22464 28187 ft 422 kts 235°
2026-04-29 15:13 32.43475 37.20613 27765 ft 421 kts 235°
2026-04-29 15:13 32.41703 37.17901 27157 ft 418 kts 235°
2026-04-29 15:13 32.39349 37.14302 26347 ft 414 kts 234°
2026-04-29 15:14 32.38174 37.12507 25942 ft 412 kts 234°
2026-04-29 15:14 32.36430 37.09843 25333 ft 409 kts 234°
2026-04-29 15:14 32.34711 37.07220 24724 ft 408 kts 234°
2026-04-29 15:14 32.32940 37.04518 24063 ft 407 kts 234°
2026-04-29 15:15 32.31230 37.01912 23501 ft 404 kts 234°
2026-04-29 15:15 32.29506 36.99285 22822 ft 402 kts 234°
2026-04-29 15:15 32.27801 36.96691 22284 ft 396 kts 234°
2026-04-29 15:15 32.26117 36.94132 21677 ft 392 kts 234°
2026-04-29 15:16 32.24438 36.91581 21088 ft 389 kts 234°
2026-04-29 15:16 32.22804 36.89099 20503 ft 386 kts 234°
2026-04-29 15:16 32.21158 36.86600 19885 ft 384 kts 234°
2026-04-29 15:16 32.19524 36.84121 19262 ft 383 kts 233°
2026-04-29 15:17 32.17906 36.81668 18721 ft 379 kts 233°
2026-04-29 15:17 32.16293 36.79224 18119 ft 377 kts 233°
2026-04-29 15:17 32.14687 36.76794 17513 ft 373 kts 233°
2026-04-29 15:17 32.13094 36.74385 16921 ft 369 kts 233°
2026-04-29 15:18 32.11525 36.72016 16340 ft 366 kts 233°
2026-04-29 15:18 32.09951 36.69639 15751 ft 363 kts 233°
2026-04-29 15:18 32.08407 36.67309 15188 ft 361 kts 233°
2026-04-29 15:18 32.06860 36.64977 14617 ft 359 kts 233°
2026-04-29 15:19 32.05335 36.62677 13954 ft 360 kts 233°
2026-04-29 15:19 32.03791 36.60350 13400 ft 357 kts 233°
2026-04-29 15:19 32.02266 36.58058 12841 ft 353 kts 233°
2026-04-29 15:19 32.00763 36.55803 12265 ft 350 kts 232°
2026-04-29 15:20 31.99267 36.53561 11725 ft 347 kts 232°
2026-04-29 15:20 31.97769 36.51319 11160 ft 345 kts 232°
2026-04-29 15:20 31.96332 36.49166 10609 ft 343 kts 232°
2026-04-29 15:20 31.94841 36.46933 10325 ft 332 kts 232°
2026-04-29 15:21 31.93450 36.44849 10138 ft 311 kts 232°
2026-04-29 15:21 31.92170 36.42930 9968 ft 292 kts 231°
2026-04-29 15:21 31.90925 36.41065 9550 ft 282 kts 232°
2026-04-29 15:21 31.89749 36.39304 9287 ft 267 kts 231°
2026-04-29 15:22 31.88614 36.37604 9177 ft 268 kts 232°
2026-04-29 15:22 31.87437 36.35840 9055 ft 280 kts 232°
2026-04-29 15:22 31.86228 36.34027 8717 ft 286 kts 232°
2026-04-29 15:22 31.85017 36.32210 8612 ft 276 kts 232°
2026-04-29 15:23 31.83767 36.30546 8496 ft 269 kts 219°
2026-04-29 15:23 31.82245 36.29308 8480 ft 272 kts 215°
2026-04-29 15:23 31.80668 36.28029 8485 ft 276 kts 216°
2026-04-29 15:23 31.79086 36.26736 8364 ft 278 kts 216°
2026-04-29 15:24 31.77495 36.25442 8072 ft 278 kts 216°
2026-04-29 15:24 31.75940 36.24086 7465 ft 276 kts 226°
2026-04-29 15:24 31.74927 36.22197 6785 ft 276 kts 253°
2026-04-29 15:24 31.74570 36.19991 6177 ft 274 kts 263°
2026-04-29 15:25 31.74277 36.17791 5581 ft 273 kts 261°
2026-04-29 15:25 31.73968 36.15598 4992 ft 273 kts 262°
2026-04-29 15:25 31.73657 36.13460 4419 ft 251 kts 262°
2026-04-29 15:25 31.73384 36.11571 4086 ft 225 kts 262°
2026-04-29 15:26 31.73137 36.09859 3840 ft 199 kts 263°
2026-04-29 15:26 31.72919 36.08342 3572 ft 178 kts 263°
2026-04-29 15:26 31.72727 36.06999 3348 ft 157 kts 262°
2026-04-29 15:26 31.72550 36.05779 3104 ft 144 kts 264°
2026-04-29 15:27 31.72391 36.04657 2911 ft 137 kts 261°
2026-04-29 15:27 31.72228 36.03544 2724 ft 140 kts 263°
2026-04-29 15:27 31.72067 36.02422 2533 ft 139 kts 262°
2026-04-29 15:27 31.71906 36.01303 2414 ft 135 kts 262°
2026-04-29 15:28 31.71728 36.00127 2768 ft 147 kts 259°
2026-04-29 15:28 31.71583 35.99366 3357 ft 146 kts 259°
2026-04-29 15:28 31.71160 35.97735 3994 ft 171 kts 256°
2026-04-29 15:28 31.70771 35.96268 4109 ft 208 kts 257°
2026-04-29 15:29 31.70345 35.94513 4200 ft 243 kts 257°
2026-04-29 15:29 31.69360 35.90427 4298 ft 265 kts 250°
2026-04-29 15:30 31.66594 35.87652 4295 ft 278 kts 195°
2026-04-29 15:30 31.64651 35.87632 4294 ft 282 kts 167°
2026-04-29 15:30 31.62917 35.88592 4277 ft 281 kts 140°
2026-04-29 15:30 31.61730 35.90389 4372 ft 283 kts 111°
2026-04-29 15:31 31.61400 35.92646 4885 ft 282 kts 81°
2026-04-29 15:31 31.61963 35.94861 5296 ft 282 kts 57°
2026-04-29 15:31 31.63144 35.96658 5482 ft 275 kts 45°
2026-04-29 15:31 31.64437 35.98300 5635 ft 278 kts 46°
2026-04-29 15:32 31.65540 35.99844 5750 ft 279 kts 52°
2026-04-29 15:32 31.66688 36.01717 5901 ft 280 kts 54°
2026-04-29 15:32 31.67761 36.03666 5992 ft 282 kts 56°
2026-04-29 15:32 31.68787 36.05614 6003 ft 283 kts 57°
2026-04-29 15:33 31.69778 36.07578 5993 ft 279 kts 63°
2026-04-29 15:33 31.70652 36.09667 6000 ft 282 kts 59°
2026-04-29 15:33 31.71654 36.11616 6000 ft 281 kts 57°
2026-04-29 15:33 31.72682 36.13587 5999 ft 283 kts 57°
2026-04-29 15:34 31.73710 36.15563 6002 ft 282 kts 57°
2026-04-29 15:34 31.74706 36.17482 5995 ft 282 kts 57°
2026-04-29 15:34 31.75730 36.19446 5995 ft 282 kts 57°
2026-04-29 15:34 31.76755 36.21414 5997 ft 281 kts 57°
2026-04-29 15:35 31.77771 36.23377 5992 ft 280 kts 57°
2026-04-29 15:35 31.78781 36.25342 5993 ft 280 kts 57°
2026-04-29 15:35 31.79782 36.27298 5991 ft 281 kts 57°
2026-04-29 15:35 31.80684 36.29326 5985 ft 283 kts 71°
2026-04-29 15:36 31.80851 36.31660 5981 ft 288 kts 99°
2026-04-29 15:36 31.80133 36.33838 5981 ft 287 kts 126°
2026-04-29 15:36 31.78673 36.35419 5982 ft 287 kts 153°
2026-04-29 15:36 31.76779 36.36077 5980 ft 284 kts 180°
2026-04-29 15:37 31.74894 36.35691 5978 ft 274 kts 207°
2026-04-29 15:37 31.73395 36.34360 5981 ft 271 kts 234°
2026-04-29 15:37 31.72604 36.32391 5987 ft 270 kts 261°
2026-04-29 15:37 31.72357 36.30190 5986 ft 270 kts 265°
2026-04-29 15:38 31.72240 36.28021 5997 ft 267 kts 274°
2026-04-29 15:38 31.72512 36.25857 5994 ft 264 kts 291°
2026-04-29 15:38 31.73486 36.24076 5994 ft 265 kts 314°
2026-04-29 15:38 31.74616 36.22334 5814 ft 267 kts 295°
2026-04-29 15:39 31.74987 36.20220 5472 ft 265 kts 269°
2026-04-29 15:39 31.74684 36.18096 5140 ft 261 kts 258°
2026-04-29 15:39 31.74238 36.16084 4812 ft 244 kts 258°
2026-04-29 15:39 31.73878 36.14260 4506 ft 219 kts 261°
2026-04-29 15:40 31.73612 36.12589 4219 ft 197 kts 263°
2026-04-29 15:40 31.73374 36.11079 4035 ft 179 kts 262°
2026-04-29 15:40 31.73148 36.09698 3778 ft 164 kts 262°
2026-04-29 15:40 31.72946 36.08448 3584 ft 145 kts 263°
2026-04-29 15:41 31.72778 36.07335 3398 ft 140 kts 263°
2026-04-29 15:41 31.72613 36.06173 3186 ft 147 kts 264°
2026-04-29 15:41 31.72440 36.04996 2980 ft 142 kts 263°
2026-04-29 15:41 31.72283 36.03867 2768 ft 141 kts 261°
2026-04-29 15:42 31.72108 36.02731 2557 ft 142 kts 262°
2026-04-29 15:42 31.71949 36.01575 2437 ft 145 kts 262°
2026-04-29 15:42 31.71795 36.00524 2408 ft 104 kts 261°
2026-04-29 15:42 31.71711 35.99925 2410 ft 47 kts 261°
2026-04-29 15:43 31.71676 35.99685 2410 ft 26 kts 260°
2026-04-29 15:43 31.71664 35.99478 2409 ft 25 kts 276°
2026-04-29 15:43 31.71704 35.99295 2408 ft 23 kts 290°
2026-04-29 15:43 31.71759 35.99123 2409 ft 21 kts 291°
2026-04-29 15:44 31.71809 35.98965 2410 ft 21 kts 290°
2026-04-29 15:44 31.71908 35.98904 2409 ft 14 kts 349°
2026-04-29 15:44 31.71995 35.98903 2408 ft 8 kts 47°
2026-04-29 15:44 31.72009 35.98973 2408 ft 7 kts 63°
2026-04-29 15:45 31.72044 35.98981 2408 ft 6 kts 12°
2026-04-29 15:45 31.72086 35.98994 2408 ft 0 kts 15°